Hourly Weather Roundup
Issued by NWS Central Illinois

Home | Current Version | Previous Version | Text Only | Print | Product List | Glossary On
Versions: 1 2 3 4 5 6 7 8 9 10 11 12 13 14 15 16 17 18 19 20 21 22 23 24 25 26 27 28 29 30 31 32 33 34 35 36 37 38 39 40 41 42 43 44 45 46 47 48 49 50
000
NZUS43 KILX 281010
HWRILX

AREA WEATHER ROUNDUP
NATIONAL WEATHER SERVICE, LINCOLN IL
500 AM CDT SAT MAY 28 2016


CITY           SKY/WX    TMP DP  RH WIND       PRES   REMARKS
BLOOMINGTON    CLOUDY    69  67  93 S17       29.89R
CHAMPAIGN      CLOUDY    69  65  86 S15       29.91R
DANVILLE       CLOUDY    71  64  80 S13       29.91R
DECATUR        CLOUDY    70  65  84 S12       29.90R
EFFINGHAM      CLOUDY    70  67  92 SE7G17    29.94S
FLORA          CLOUDY    69  67  92 SE6       29.94S
GALESBURG      MOCLDY    68  66  94 S8        29.80R
JACKSONVILLE   MOCLDY    69  65  89 S14       29.84R
LACON          CLOUDY    69  65  86 S9G17     29.82R
LAWRENCEVILLE  CLOUDY    73  66  78 S10       29.96R
LITCHFIELD     CLOUDY    66  63  89 S10       29.90R
$$


CITY           SKY/WX    TMP DP  RH WIND       PRES   REMARKS
LINCOLN        CLOUDY    70  66  87 S12G20    29.86S
MACOMB         CLOUDY    68  67  95 S9        29.82R
MATTOON        CLOUDY    70  64  81 S9        29.92R
MT CARMEL AP   CLOUDY    72  64  77 S7        29.96R
OLNEY-NOBLE AP CLOUDY    72  66  83 S9        29.95R
PARIS          CLOUDY    70  66  85 S7        29.94S
PEORIA         CLOUDY    70  65  84 S15G24    29.83R
PONTIAC        CLOUDY    71  67  89 S14G20    29.87S
RANTOUL        CLOUDY    71  67  84 S14       29.91S
ROBINSON       CLOUDY    71  65  82 S7        29.96R
SPRINGFIELD    MOCLDY    70  64  81 S14       29.86R
TAYLORVILLE    CLOUDY    67  65  94 S12       29.89S
$$

...REGIONAL REPORTS...


CITY           SKY/WX    TMP DP  RH WIND       PRES   REMARKS
CHICAGO O`HARE CLOUDY    69  64  84 S12       29.85S
KANKAKEE       LGT RAIN  71  64  79 S15G21    29.90R
MOLINE         PTCLDY    69  63  81 SW14      29.76R
MOUNT STERLING CLOUDY    68  66  93 S10       29.81R
MOUNT VERNON   CLOUDY    70  63  78 S6        29.94R
PITTSFIELD     PTCLDY    68  66  94 S10       29.84R
QUINCY         CLOUDY    68  66  93 S13       29.80R
ROCKFORD       CLOUDY    70  65  84 S21       29.82S
$$


CITY           SKY/WX    TMP DP  RH WIND       PRES   REMARKS
BURLINGTON     MOCLDY    66  66 100 SW6       29.78R
CEDAR RAPIDS   CLOUDY    63  63 100 SW3       29.74F
DES MOINES     CLOUDY    63  60  90 S3        29.74S
KIRKSVILLE     CLOUDY    64  63  96 S5        29.78R
OTTUMWA        MOCLDY    63  62  97 S6        29.76R
ST LOUIS       MOCLDY    69  64  84 S12       29.88R
$$


CITY           SKY/WX    TMP DP  RH WIND       PRES   REMARKS
TERRE HAUTE    CLOUDY    73  64  73 S8        29.95R
EVANSVILLE     MOCLDY    71  65  81 S3        29.98R
INDIANAPOLIS   CLOUDY    72  64  76 S9        29.96S
LAFAYETTE      CLOUDY    74  62  66 S10       29.93R
MADISON        LGT RAIN  68  66  93 SE12      29.77F
MILWAUKEE      CLOUDY    64  61  90 SE9       29.84S
$$






USA.gov is the U.S. government's official web portal to all federal, state and local government web resources and services.